Weather History for Chillicothe, MO

Change the Weather History Date:

Saturday, February 11, 2012

  Actual Average (KIRK) Record (KIRK)
Temperature  
Mean Temperature 18 °F 29 °F  
Max Temperature 27 °F 38 °F 68 °F (1932)
Min Temperature 8 °F 19 °F -17 °F (1981)
Degree Days  
Heating Degree Days 48 36  
Month to date heating degree days 411  
Since 1 July heating degree days 3958  
Cooling Degree Days 0 0  
Month to date cooling degree days 0  
Year to date cooling degree days 0  
Moisture  
Dew Point 0 °F    
Average Humidity 51    
Maximum Humidity 70    
Minimum Humidity 30    
Precipitation  
Precipitation 0.00 in 0.06 in 0.76 in (2009)
Month to date precipitation 0.61  
Year to date precipitation 1.88  
Sea Level Pressure  
Sea Level Pressure 30.70 in    
Wind  
Wind Speed 9 mph (NW)    
Max Wind Speed 14 mph    
Max Gust Speed 24 mph    
T = Trace of Precipitation, MM = Missing Value Source: NWS Daily Summary

Daily Weather History Graph

Daily Weather History Graph

Search for Another Location

Airport:

Trip Planner

Search our weather history database for the weather conditions in past years. The results will help you decide how hot, cold, wet, or windy it might be!

Date:

Astronomy

Feb. 11, 2012 Rise Set
Actual Time 7:12 AM CST 5:45 PM CST
Civil Twilight 6:44 AM CST 6:13 PM CST
Nautical Twilight 6:12 AM CST 6:45 PM CST
Astronomical Twilight 5:41 AM CST 7:16 PM CST
Moon 10:33 PM CST (2/11) 8:55 AM CST (2/11)
Length of Visible Light 11h 28m
Length of Day
10h 32m
Waning Gibbous, 82% of the Moon is Illuminated
Feb 11
Waning Gibbous
Feb 14
Last Quarter
Feb 21
New
Feb 29
First Quarter
Mar 8
Full

Hourly Weather History & Observations

Time (CST) Temp. Windchill Dew Point Humidity Pressure Visibility Wind Dir Wind Speed Gust Speed Precip Events Conditions
12:52 AM 12.9 °F -0.2 °F 3.0 °F 65% 30.55 in - North 10.4 mph 20.7 mph N/A   Unknown
1:52 AM 12.0 °F -1.3 °F 1.9 °F 64% 30.58 in - NNW 10.4 mph 17.3 mph N/A   Unknown
2:52 AM 10.9 °F -0.8 °F 1.0 °F 64% 30.61 in - NNW 8.1 mph - N/A   Unknown
3:52 AM 10.0 °F -0.9 °F -0.0 °F 64% 30.63 in - NW 6.9 mph - N/A   Unknown
4:52 AM 9.0 °F -0.9 °F -0.0 °F 67% 30.66 in - NW 5.8 mph - N/A   Unknown
5:52 AM 8.1 °F -3.2 °F -0.0 °F 70% 30.69 in - NNW 6.9 mph - N/A   Unknown
6:52 AM 8.1 °F -2.0 °F -0.9 °F 67% 30.72 in - NW 5.8 mph - N/A   Unknown
7:52 AM 8.1 °F -3.2 °F -0.9 °F 67% 30.75 in - NW 6.9 mph - N/A   Unknown
8:52 AM 12.0 °F -0.4 °F -0.9 °F 56% 30.77 in - NNW 9.2 mph - N/A   Unknown
9:52 AM 17.1 °F 7.6 °F -0.0 °F 47% 30.79 in - Variable 6.9 mph - N/A   Unknown
10:52 AM 19.9 °F 8.6 °F -2.0 °F 38% 30.79 in - NW 10.4 mph 16.1 mph N/A   Unknown
11:52 AM 23.0 °F 11.7 °F -0.0 °F 37% 30.78 in - NNW 11.5 mph 20.7 mph N/A   Unknown
12:52 PM 26.1 °F 16.8 °F 1.9 °F 35% 30.75 in - NNW 9.2 mph - N/A   Unknown
1:52 PM 27.0 °F 15.6 °F -0.0 °F 31% 30.73 in - NNW 13.8 mph 21.9 mph N/A   Unknown
2:52 PM 27.0 °F 15.6 °F -0.0 °F 31% 30.73 in - NW 13.8 mph 23.0 mph N/A   Unknown
3:52 PM 27.0 °F 15.6 °F -0.9 °F 30% 30.73 in - NNW 13.8 mph 24.2 mph N/A   Unknown
4:52 PM 25.0 °F 15.5 °F -2.0 °F 31% 30.73 in - NNW 9.2 mph 20.7 mph N/A   Unknown
5:52 PM 21.9 °F 13.4 °F -0.9 °F 37% 30.72 in - NW 6.9 mph - N/A   Unknown
6:52 PM 19.9 °F 12.1 °F -0.9 °F 40% 30.73 in - NW 5.8 mph - N/A   Unknown
7:52 PM 17.1 °F 10.0 °F 1.0 °F 50% 30.74 in - NW 4.6 mph - N/A   Unknown
8:52 PM 17.1 °F 5.8 °F -0.0 °F 47% 30.73 in - NW 9.2 mph - N/A   Unknown
9:52 PM 15.1 °F 4.2 °F -0.0 °F 51% 30.72 in - NW 8.1 mph - N/A   Unknown
10:52 PM 14.0 °F 6.5 °F -0.0 °F 54% 30.70 in - NNW 4.6 mph - N/A   Unknown
11:52 PM 12.9 °F 6.9 °F -0.0 °F 56% 30.71 in - Variable 3.5 mph - N/A   Unknown